Fort Morgan, CO

1:47 AM MDT on October 24, 2017 (GMT -0600)
Fort Morgan

Weather History for KFMM - October, 2012

Change the Weather History Date:

Tuesday, October 9, 2012

  Actual Average (KAKO) Record (KAKO)
Temperature  
Mean Temperature 42 °F -  
Max Temperature 49 °F 63 °F 87 °F (2003)
Min Temperature 34 °F 36 °F 21 °F (1970)
Degree Days  
Heating Degree Days 24    
Moisture  
Dew Point 33 °F    
Average Humidity 75    
Maximum Humidity 95    
Minimum Humidity 41    
Precipitation  
Precipitation 0.00 in - - ()
Sea Level Pressure  
Sea Level Pressure 30.08 in    
Wind  
Wind Speed 9 mph ()    
Max Wind Speed 22 mph    
Max Gust Speed 29 mph    
Visibility 10.0 miles    
Events      
Averages and records for this station are not official NWS values.
T = Trace of Precipitation, MM = Missing Value Source: Averaged Metar Reports

Daily Weather History Graph

Daily Weather History Graph

Search for Another Location

Airport or City:

Trip Planner

Search our weather history database for the weather conditions in past years. The results will help you decide how hot, cold, wet, or windy it might be!

Date:

Astronomy

Oct. 09, 2012 Rise Set
Actual Time 7:00 AM MDT 6:23 PM MDT
Civil Twilight 6:32 AM MDT 6:50 PM MDT
Nautical Twilight 6:01 AM MDT 7:22 PM MDT
Astronomical Twilight 5:29 AM MDT 7:53 PM MDT
Moon 12:38 AM MDT (10/9) 2:53 PM MDT (10/9)
Length of Visible Light 12h 17m
Length of Day
11h 23m
Last Quarter, 36% of the Moon is Illuminated
Oct 9
Last Quarter
Oct 15
New
Oct 21
First Quarter
Oct 29
Full
Nov 6
Last Quarter

Hourly Weather History & Observations

Time (MDT) Temp. Windchill Dew Point Humidity Pressure Visibility Wind Dir Wind Speed Gust Speed Precip Events Conditions
12:15 AM 43.7 °F 39.7 °F 21.6 °F 41% 29.84 in 10.0 mi West 6.9 mph - N/A   Clear
12:35 AM 39.4 °F 33.2 °F 23.9 °F 54% 29.84 in 10.0 mi West 9.2 mph - N/A   Clear
12:55 AM 38.7 °F 32.4 °F 23.5 °F 55% 29.84 in 10.0 mi West 9.2 mph - N/A   Clear
1:15 AM 39.9 °F 33.9 °F 23.0 °F 51% 29.84 in 10.0 mi West 9.2 mph - N/A   Clear
1:35 AM 42.6 °F 34.9 °F 22.6 °F 45% 29.86 in 10.0 mi NNW 16.1 mph 24.2 mph N/A   Clear
1:55 AM 42.6 °F 34.3 °F 23.0 °F 46% 29.87 in 10.0 mi North 18.4 mph - N/A   Clear
2:15 AM 43.9 °F 35.9 °F 24.1 °F 46% 29.88 in 10.0 mi North 18.4 mph - N/A   Clear
2:35 AM 44.1 °F 35.4 °F 25.0 °F 47% 29.89 in 10.0 mi North 21.9 mph 27.6 mph N/A   Clear
2:55 AM 43.0 °F 34.2 °F 26.4 °F 52% 29.89 in 10.0 mi North 20.7 mph 28.8 mph N/A   Clear
3:15 AM 41.4 °F 33.3 °F 28.2 °F 60% 29.91 in 10.0 mi NNE 16.1 mph 24.2 mph N/A   Clear
3:35 AM 40.8 °F 32.6 °F 30.7 °F 67% 29.91 in 10.0 mi NNE 16.1 mph - N/A   Clear
3:55 AM 39.9 °F 32.1 °F 30.9 °F 70% 29.92 in 10.0 mi NNE 13.8 mph 20.7 mph N/A   Clear
4:15 AM 38.8 °F 29.7 °F 32.0 °F 76% 29.93 in 10.0 mi North 17.3 mph - N/A   Clear
4:35 AM 38.3 °F 30.1 °F 33.1 °F 81% 29.94 in 10.0 mi North 13.8 mph 18.4 mph N/A   Clear
4:55 AM 37.4 °F 29.8 °F 33.8 °F 87% 29.96 in 10.0 mi NNE 11.5 mph - N/A   Clear
5:15 AM 36.9 °F 29.1 °F 33.8 °F 89% 29.96 in 10.0 mi NNE 11.5 mph - N/A   Clear
5:35 AM 35.8 °F 28.3 °F 33.1 °F 90% 29.97 in 10.0 mi North 10.4 mph - N/A   Clear
5:55 AM 35.8 °F 27.8 °F 33.8 °F 92% 29.98 in 10.0 mi North 11.5 mph - N/A   Clear
6:15 AM 35.1 °F 27.9 °F 33.1 °F 92% 29.99 in 10.0 mi NNE 9.2 mph - N/A   Clear
6:35 AM 34.7 °F 29.6 °F 32.9 °F 93% 30.01 in 10.0 mi North 5.8 mph - N/A   Clear
6:55 AM 34.5 °F 31.6 °F 33.3 °F 95% 30.03 in 10.0 mi NW 3.5 mph - N/A   Scattered Clouds
7:15 AM 36.5 °F - 34.7 °F 93% 30.04 in 10.0 mi Calm Calm - N/A   Overcast
7:35 AM 37.6 °F 34.0 °F 36.1 °F 95% 30.05 in 10.0 mi North 4.6 mph - N/A   Overcast
7:55 AM 39.7 °F 34.9 °F 37.0 °F 90% 30.05 in 10.0 mi NE 6.9 mph - N/A   Overcast
8:15 AM 40.3 °F 34.9 °F 37.4 °F 89% 30.07 in 10.0 mi NNE 8.1 mph - N/A   Overcast
8:35 AM 40.6 °F 34.8 °F 37.4 °F 88% 30.08 in 10.0 mi NNE 9.2 mph - N/A   Overcast
8:55 AM 40.5 °F 33.2 °F 36.9 °F 87% 30.09 in 10.0 mi North 12.7 mph - N/A   Overcast
9:15 AM 40.6 °F 35.4 °F 36.7 °F 86% 30.10 in 10.0 mi North 8.1 mph - N/A   Overcast
9:35 AM 41.4 °F 35.7 °F 36.5 °F 83% 30.11 in 10.0 mi North 9.2 mph - N/A   Overcast
9:55 AM 41.9 °F 37.5 °F 36.5 °F 81% 30.11 in 10.0 mi North 6.9 mph - N/A   Overcast
10:15 AM 42.4 °F 38.8 °F 36.7 °F 80% 30.12 in 10.0 mi NNE 5.8 mph - N/A   Overcast
10:35 AM 43.0 °F 40.3 °F 36.9 °F 79% 30.11 in 10.0 mi NNE 4.6 mph - N/A   Overcast
10:55 AM 43.2 °F 40.5 °F 37.0 °F 79% 30.12 in 10.0 mi NNW 4.6 mph - N/A   Overcast
11:15 AM 43.9 °F 40.5 °F 37.0 °F 77% 30.12 in 10.0 mi North 5.8 mph - N/A   Overcast
11:35 AM 44.6 °F 42.2 °F 37.0 °F 75% 30.11 in 10.0 mi ENE 4.6 mph - N/A   Overcast
11:55 AM 45.0 °F 42.6 °F 37.4 °F 75% 30.11 in 10.0 mi ENE 4.6 mph - N/A   Overcast
12:15 PM 44.8 °F 41.0 °F 37.2 °F 75% 30.12 in 10.0 mi East 6.9 mph - N/A   Overcast
12:35 PM 45.5 °F 42.5 °F 37.4 °F 73% 30.11 in 10.0 mi East 5.8 mph - N/A   Overcast
12:55 PM 44.8 °F 39.9 °F 37.4 °F 75% 30.11 in 10.0 mi ENE 9.2 mph - N/A   Overcast
1:15 PM 44.1 °F 39.5 °F 37.6 °F 78% 30.11 in 10.0 mi East 8.1 mph - N/A   Overcast
1:35 PM 44.4 °F 40.0 °F 37.9 °F 78% 30.12 in 10.0 mi ENE 8.1 mph - N/A   Overcast
1:55 PM 46.2 °F 41.2 °F 38.3 °F 74% 30.11 in 10.0 mi ENE 10.4 mph - N/A   Overcast
2:15 PM 47.1 °F - 37.9 °F 70% 30.12 in 10.0 mi NE 9.2 mph - N/A   Overcast
2:35 PM 48.2 °F - 38.5 °F 69% 30.12 in 10.0 mi NE 12.7 mph - N/A   Overcast
2:55 PM 48.4 °F - 37.9 °F 67% 30.13 in 10.0 mi NNE 12.7 mph - N/A   Mostly Cloudy
3:15 PM 47.5 °F - 36.7 °F 66% 30.13 in 10.0 mi North 9.2 mph - N/A   Mostly Cloudy
3:35 PM 48.4 °F - 36.0 °F 62% 30.13 in 10.0 mi North 12.7 mph - N/A   Scattered Clouds
3:55 PM 49.3 °F - 35.8 °F 60% 30.13 in 10.0 mi NNE 9.2 mph - N/A   Scattered Clouds
4:15 PM 49.6 °F - 34.9 °F 57% 30.13 in 10.0 mi ENE 5.8 mph - N/A   Scattered Clouds
4:35 PM 48.9 °F - 34.7 °F 58% 30.13 in 10.0 mi ENE 5.8 mph - N/A   Scattered Clouds
4:55 PM 48.2 °F - 34.5 °F 59% 30.14 in 10.0 mi NNE 8.1 mph - N/A   Clear
5:15 PM 46.6 °F - 34.0 °F 62% 30.15 in 10.0 mi NE 6.9 mph - N/A   Clear
5:35 PM 45.5 °F 42.5 °F 34.0 °F 64% 30.16 in 10.0 mi ENE 5.8 mph - N/A   Mostly Cloudy
5:55 PM 44.8 °F 41.6 °F 34.0 °F 66% 30.16 in 10.0 mi East 5.8 mph - N/A   Overcast
6:15 PM 43.2 °F 40.5 °F 33.6 °F 69% 30.17 in 10.0 mi ENE 4.6 mph - N/A   Mostly Cloudy
6:35 PM 40.8 °F 37.8 °F 32.7 °F 73% 30.17 in 10.0 mi East 4.6 mph - N/A   Scattered Clouds
6:55 PM 39.4 °F 36.1 °F 32.0 °F 75% 30.18 in 10.0 mi East 4.6 mph - N/A   Clear
7:15 PM 39.0 °F 36.8 °F 32.5 °F 78% 30.18 in 10.0 mi SE 3.5 mph - N/A   Clear
7:35 PM 37.6 °F 35.1 °F 32.2 °F 81% 30.20 in 10.0 mi East 3.5 mph - N/A   Clear
7:55 PM 38.3 °F 34.8 °F 32.7 °F 80% 30.20 in 10.0 mi East 4.6 mph - N/A   Clear
8:15 PM 37.4 °F 32.8 °F 32.2 °F 81% 30.21 in 10.0 mi East 5.8 mph - N/A   Clear
8:35 PM 36.3 °F 32.5 °F 32.0 °F 84% 30.21 in 10.0 mi East 4.6 mph - N/A   Clear
8:55 PM 37.4 °F - 32.9 °F 84% 30.22 in 10.0 mi Calm Calm - N/A   Clear
9:15 PM 36.0 °F - 32.2 °F 86% 30.22 in 10.0 mi Calm Calm - N/A   Clear
9:35 PM 36.0 °F - 32.9 °F 89% 30.22 in 10.0 mi Calm Calm - N/A   Clear
9:55 PM 36.0 °F - 32.0 °F 86% 30.22 in 10.0 mi Calm Calm - N/A   Clear
10:15 PM 35.8 °F - 32.7 °F 89% 30.22 in 10.0 mi Calm Calm - N/A   Clear
10:35 PM 36.5 °F 33.9 °F 33.1 °F 87% 30.22 in 10.0 mi SE 3.5 mph - N/A   Clear
10:55 PM 34.7 °F 31.8 °F 32.2 °F 91% 30.22 in 10.0 mi SE 3.5 mph - N/A   Clear
11:15 PM 34.3 °F 30.2 °F 32.0 °F 91% 30.21 in 10.0 mi SSE 4.6 mph - N/A   Clear
11:35 PM 35.4 °F - 32.7 °F 90% 30.21 in 10.0 mi Calm Calm - N/A   Clear
11:55 PM 34.2 °F 31.2 °F 32.0 °F 92% 30.21 in 10.0 mi SE 3.5 mph - N/A   Clear